Regional Weather Roundup
Issued by NWS Cleveland, OH

Home | Current Version | Previous Version | Text Only | Print | Product List | Glossary Off
Versions: 1 2 3 4 5 6 7 8 9 10 11 12 13 14 15 16 17 18 19 20 21 22 23 24 25 26 27 28 29 30 31 32 33 34 35 36 37 38 39 40 41 42 43 44 45 46 47 48 49 50

012
ASUS41 KCLE 280512
RWRCLE
OHIO REGIONAL WEATHER ROUNDUP
NATIONAL WEATHER SERVICE WILMINGTON, OH
100 AM EDT SUN AUG 28 2016

NOTE: "FAIR" INDICATES FEW OR NO CLOUDS BELOW 12,000 FEET WITH NO
SIGNIFICANT WEATHER AND/OR OBSTRUCTIONS TO VISIBILITY.

OHZ001>008-015>018-024>027-034-035-043-044-280600-
   NORTHWEST OHIO

CITY           SKY/WX    TMP DP  RH WIND       PRES   REMARKS
DEFIANCE       FAIR      73  70  90 CALM      30.13S FOG
FINDLAY        FAIR      70  67  90 S3        30.12F
TOLEDO EXPRESS FAIR      70  70 100 CALM      30.13S
TOLEDO EXEC    FAIR      71  70  96 CALM      30.14S FOG
LIMA           FAIR      71  70  96 S6        30.14F
$$

OHZ009>014-019>023-028>033-038-089-280600-
   NORTHEAST OHIO

CITY           SKY/WX    TMP DP  RH WIND       PRES   REMARKS
CLE-HOPKINS    FAIR      72  67  84 S6        30.15S
CLE-LAKEFRONT  FAIR      74  71  91 S5        30.12R
CUY CO. ARPT   NOT AVBL
LORAIN-ELYRIA  FAIR      68  66  93 CALM      30.14S
ASHTABULA      FAIR      69  69 100 CALM      30.15S
AKRON-CANTON   FAIR      71  67  87 S6        30.16S
WOOSTER        FOG       65  64  97 CALM      30.17S VSB 1/4
MANSFIELD      FAIR      69  68  96 S5        30.17S
YOUNGSTOWN     FAIR      72  67  84 CALM      30.16R
$$

OHZ042-051>053-060>062-070>072-077>081-280600-
  SOUTHWEST OHIO

CITY           SKY/WX    TMP DP  RH WIND       PRES   REMARKS
CINC-COVINGTON MOCLDY    75  73  93 CALM      30.16R
CINC-LUNKEN    NOT AVBL
HAMILTON       FAIR      71  69  93 CALM      30.16S
DAYTON         FAIR      73  70  90 S3        30.17S
WRIGHT-PAT AFB MOCLDY    71  71 100 SW1       30.16R
DAYTON GENERAL FAIR      72  68  87 CALM      30.16R
WILMINGTON     FAIR      69  68  96 CALM      30.17R
$$

OHZ036-037-039>041-045>050-054>059-063>069-073>076-082>088-280600-
  CENTRAL AND SOUTHEAST OHIO

CITY           SKY/WX    TMP DP  RH WIND       PRES   REMARKS
COLUMBUS       MOCLDY    71  70  96 CALM      30.15S
OSU AIRPORT    FAIR      70  69  97 CALM      30.16R
BOLTON FIELD   FAIR      68  68 100 CALM      30.17R
RICKENBACK AFB FAIR      71  69  93 CALM      30.16R
NEWARK         FAIR      68  68 100 CALM      30.16R
MARION         FAIR      70  67  90 S3        30.16R
LANCASTER      FAIR      69  68  96 CALM      30.16S
ZANESVILLE     FAIR      71  68  90 CALM      30.15F
NEW PHILLY     FAIR      72  68  87 CALM      30.16S
$$




USA.gov is the U.S. government's official web portal to all federal, state and local government web resources and services.